Location: Ansan
(43.6898°N, 0.7731°E)
Time: 20:10:48
(UTC+00:00)

NOSS 3-4 (A) - Pass Details

Date: 15 May 2026
Orbit: 769 x 1442 km, 63.4° (Epoch: 10 January)

Event Time Altitude Azimuth Distance (km) Brightness Sun altitude
Rises 20:40:22 0° 325° (NW) 3,666 8.3 -13.3°
Reaches altitude 10° 20:42:53 10° 331° (NNW) 2,806 7.2 -13.6°
Maximum altitude 20:49:22 49° 46° (NE) 1,443 4.4 -14.5°
Enters shadow 20:55:06 18° 114° (ESE) 2,680 5.2 -15.2°
